Date String (YYYY-MM-DD hh:mm:ss) UTC,Instrument flags,Ambient pressure (hPa),Sample flow (lpm),Bypass flow (lpm),Sample temperature (°C),Ambient temperature (°C),ASC tube jacket temperature (°C),LED temperature (°C),Box temperature (°C),Sample RH (%),Span deviation,Mass concentration (μg/m³),Mass concentration (μg/m³),Mass concentration (μg/m³)
DateTimeUTC,F1_M11,P_M11,Q1_M11,Q2_M11,T1_M11,T2_M11,T3_M11,T4_M11,T5_M11,U1_M11,ZSPAN_M11,X0_M11,X2_M11,X1_M11
2022-08-29 01:00:00,,0823.4,5.00,0.00,29.6,26.2,00.0,38.2,31.3,22.1,0000.0,0007.24,0003.56,0002.92
2022-08-29 01:01:00,,0823.4,5.01,0.00,29.5,26.5,00.0,38.2,31.2,22.2,0000.0,0006.86,0003.53,0002.92
2022-08-29 01:02:00,,0823.5,5.00,0.00,29.4,26.9,00.0,38.1,31.2,22.3,0000.0,0006.98,0003.50,0002.93
2022-08-29 01:03:00,,0823.5,5.00,0.00,29.4,27.2,00.0,38.1,31.2,22.4,0000.0,0007.55,0003.53,0002.92
2022-08-29 01:04:00,,0823.6,4.99,0.00,29.4,27.6,00.0,38.1,31.2,22.3,0000.0,0008.49,0003.53,0002.92
2022-08-29 01:05:00,,0823.6,5.01,0.00,29.4,27.8,00.0,38.1,31.3,22.3,0000.0,0008.77,0003.53,0002.91
2022-08-29 01:06:00,,0823.6,4.99,0.00,29.4,28.0,00.0,38.2,31.3,22.4,0000.0,0010.34,0003.58,0002.90
2022-08-29 01:07:00,,0823.6,5.02,0.00,29.4,28.2,00.0,38.2,31.4,22.4,0000.0,0010.81,0003.60,0002.89
2022-08-29 01:08:00,,0823.6,5.00,0.00,29.5,28.3,00.0,38.2,31.4,22.3,0000.0,0010.88,0003.61,0002.89
2022-08-29 01:09:00,,0823.5,4.99,0.00,29.5,28.4,00.0,38.2,31.4,22.2,0000.0,0010.72,0003.55,0002.88
2022-08-29 01:10:00,,0823.4,5.00,0.00,29.5,28.5,00.0,38.2,31.5,21.9,0000.0,0010.71,0003.55,0002.87
2022-08-29 01:11:00,,0823.4,5.00,0.00,29.6,28.6,00.0,38.3,31.5,21.9,0000.0,0010.84,0003.54,0002.85
2022-08-29 01:12:00,,0823.5,5.00,0.00,29.6,28.7,00.0,38.3,31.6,21.8,0000.0,0011.00,0003.53,0002.85
2022-08-29 01:13:00,,0823.5,5.00,0.00,29.6,28.8,00.0,38.3,31.6,21.8,0000.0,0011.01,0003.57,0002.85
2022-08-29 01:14:00,,0823.6,5.01,0.00,29.7,28.7,00.0,38.3,31.6,21.6,0000.0,0011.06,0003.56,0002.85
2022-08-29 01:15:00,,0823.6,5.00,0.00,29.7,27.7,00.0,38.3,31.6,21.6,0000.0,0010.28,0003.57,0002.86
2022-08-29 01:16:00,,0823.6,4.99,0.00,29.6,26.8,00.0,38.3,31.5,21.5,0000.0,0010.00,0003.57,0002.86
2022-08-29 01:17:00,,0823.6,4.99,0.00,29.6,26.9,00.0,38.2,31.4,21.7,0000.0,0008.37,0003.50,0002.87
2022-08-29 01:18:00,,0823.6,5.00,0.00,29.5,27.2,00.0,38.2,31.3,21.9,0000.0,0007.81,0003.46,0002.87
2022-08-29 01:19:00,,0823.6,5.00,0.00,29.5,27.5,00.0,38.2,31.3,22.0,0000.0,0007.67,0003.43,0002.87
2022-08-29 01:20:00,,0823.6,5.00,0.00,29.5,27.8,00.0,38.2,31.3,22.0,0000.0,0007.91,0003.46,0002.87
2022-08-29 01:21:00,,0823.7,5.01,0.00,29.5,28.0,00.0,38.2,31.4,22.0,0000.0,0008.55,0003.50,0002.87
2022-08-29 01:22:00,,0823.7,4.99,0.00,29.5,28.2,00.0,38.3,31.4,22.1,0000.0,0008.55,0003.51,0002.86
2022-08-29 01:23:00,,0823.7,5.00,0.00,29.6,28.3,00.0,38.3,31.5,22.1,0000.0,0008.99,0003.52,0002.84
2022-08-29 01:24:00,,0823.7,5.00,0.00,29.6,28.5,00.0,38.3,31.5,22.0,0000.0,0008.93,0003.53,0002.81
2022-08-29 01:25:00,,0823.7,5.01,0.00,29.6,28.6,00.0,38.3,31.5,22.0,0000.0,0008.42,0003.52,0002.80
2022-08-29 01:26:00,,0823.7,5.01,0.00,29.7,28.7,00.0,38.3,31.6,22.2,0000.0,0008.53,0003.51,0002.79
2022-08-29 01:27:00,,0823.7,5.00,0.00,29.7,28.6,00.0,38.3,31.6,22.2,0000.0,0009.28,0003.51,0002.78
2022-08-29 01:28:00,,0823.7,5.00,0.00,29.7,27.4,00.0,38.3,31.6,22.1,0000.0,0009.46,0003.56,0002.77
2022-08-29 01:29:00,,0823.7,5.00,0.00,29.6,26.9,00.0,38.3,31.5,22.0,0000.0,0010.20,0003.57,0002.77
2022-08-29 01:30:00,,0823.7,5.00,0.00,29.6,27.0,00.0,38.3,31.4,22.0,0000.0,0010.39,0003.58,0002.77
2022-08-29 01:31:00,,0823.7,5.00,0.00,29.5,27.2,00.0,38.2,31.3,21.8,0000.0,0010.31,0003.55,0002.76
2022-08-29 01:32:00,,0823.8,4.99,0.00,29.5,27.5,00.0,38.2,31.3,21.7,0000.0,0009.53,0003.48,0002.75
2022-08-29 01:33:00,,0823.8,5.01,0.00,29.5,27.8,00.0,38.2,31.3,21.6,0000.0,0009.52,0003.48,0002.75
2022-08-29 01:34:00,,0823.8,5.00,0.00,29.5,28.0,00.0,38.2,31.4,21.6,0000.0,0009.08,0003.46,0002.76
2022-08-29 01:35:00,,0823.8,4.99,0.00,29.5,28.2,00.0,38.3,31.4,21.6,0000.0,0009.37,0003.42,0002.77
2022-08-29 01:36:00,,0823.8,5.00,0.00,29.6,28.3,00.0,38.3,31.5,21.7,0000.0,0010.11,0003.42,0002.78
2022-08-29 01:37:00,,0823.8,5.01,0.00,29.6,28.5,00.0,38.3,31.5,21.8,0000.0,0010.26,0003.41,0002.79
2022-08-29 01:38:00,,0823.7,5.01,0.00,29.6,28.6,00.0,38.3,31.5,21.5,0000.0,0009.24,0003.39,0002.79
2022-08-29 01:39:00,,0823.7,5.00,0.00,29.6,28.7,00.0,38.3,31.6,21.5,0000.0,0009.36,0003.38,0002.79
2022-08-29 01:40:00,,0823.7,5.01,0.00,29.7,28.7,00.0,38.4,31.6,21.5,0000.0,0008.95,0003.39,0002.79
2022-08-29 01:41:00,,0823.8,4.99,0.00,29.7,27.9,00.0,38.4,31.6,21.5,0000.0,0008.68,0003.40,0002.79
2022-08-29 01:42:00,,0823.8,5.00,0.00,29.7,26.9,00.0,38.3,31.5,21.5,0000.0,0008.99,0003.39,0002.78
2022-08-29 01:43:00,,0823.8,5.01,0.00,29.6,26.9,00.0,38.3,31.4,21.5,0000.0,0009.26,0003.40,0002.79
2022-08-29 01:44:00,,0823.8,4.99,0.00,29.6,27.1,00.0,38.2,31.3,21.5,0000.0,0009.17,0003.39,0002.80
2022-08-29 01:45:00,,0823.8,5.00,0.00,29.5,27.4,00.0,38.2,31.3,21.6,0000.0,0008.94,0003.38,0002.80
2022-08-29 01:46:00,,0823.7,5.00,0.00,29.5,27.7,00.0,38.2,31.3,21.6,0000.0,0009.00,0003.39,0002.79
2022-08-29 01:47:00,,0823.8,5.01,0.00,29.5,27.9,00.0,38.2,31.4,21.6,0000.0,0008.43,0003.38,0002.79
2022-08-29 01:48:00,,0823.8,4.99,0.00,29.5,28.1,00.0,38.3,31.4,21.6,0000.0,0008.31,0003.38,0002.78
2022-08-29 01:49:00,,0823.8,5.01,0.00,29.6,28.3,00.0,38.3,31.4,21.4,0000.0,0008.25,0003.38,0002.78
2022-08-29 01:50:00,,0823.8,5.00,0.00,29.6,28.4,00.0,38.3,31.5,21.4,0000.0,0008.20,0003.35,0002.77
2022-08-29 01:51:00,,0823.8,5.00,0.00,29.6,28.5,00.0,38.3,31.5,21.3,0000.0,0008.18,0003.32,0002.75
2022-08-29 01:52:00,,0823.8,5.00,0.00,29.6,28.6,00.0,38.3,31.6,21.3,0000.0,0008.19,0003.33,0002.75
2022-08-29 01:53:00,,0823.8,5.00,0.00,29.7,28.7,00.0,38.4,31.6,21.2,0000.0,0007.77,0003.36,0002.75
2022-08-29 01:54:00,,0823.8,5.00,0.00,29.7,28.8,00.0,38.4,31.6,21.1,0000.0,0007.67,0003.38,0002.76
2022-08-29 01:55:00,,0823.8,5.00,0.00,29.7,28.4,00.0,38.4,31.6,21.1,0000.0,0007.63,0003.39,0002.77
2022-08-29 01:56:00,,0823.8,4.99,0.00,29.7,27.0,00.0,38.4,31.5,21.1,0000.0,0007.94,0003.40,0002.77
2022-08-29 01:57:00,,0823.8,5.00,0.00,29.6,26.1,00.0,38.3,31.4,21.2,0000.0,0007.70,0003.45,0002.79
2022-08-29 01:58:00,,0823.8,5.01,0.00,29.6,26.2,00.0,38.2,31.3,21.2,0000.0,0007.62,0003.49,0002.81
2022-08-29 01:59:00,,0823.8,4.99,0.00,29.5,26.5,00.0,38.2,31.1,21.3,0000.0,0007.88,0003.57,0002.84
